Location: Erp
(42.9417°N, 1.2009°E)
Time: 23:32:26
(UTC+00:00)

Meteor 1-16 Rocket - Visible Passes

Search period start: 18 April 2026 00:00
Search period end: 28 April 2026 00:00
Orbit: 789 x 905 km, 81.2° (Epoch: 18 April)

Date Brightness Start Highest point End Pass type
(mag) Time Alt. Az. Time Alt. Az. Time Alt. Az.
18 Apr 7.2 20:37:47 10° WSW 20:41:23 16° WNW 20:44:59 10° NNW visible
19 Apr 7.2 20:24:16 10° WSW 20:28:10 18° WNW 20:32:04 10° NNW visible
20 Apr 7.1 20:10:47 10° WSW 20:14:58 20° WNW 20:19:08 10° NNW visible
21 Apr 7.0 19:57:20 10° WSW 20:01:46 22° WNW 20:06:10 10° NNW visible
22 Apr 6.9 19:43:56 10° WSW 19:48:35 24° WNW 19:53:11 10° NNW visible
23 Apr 6.8 19:30:34 10° SW 19:35:23 26° WNW 19:40:10 10° NNW visible
24 Apr 6.1 04:24:50 10° N 04:29:49 35° ENE 04:34:40 10° SE visible
24 Apr 6.7 19:17:12 10° SW 19:22:12 28° WNW 19:27:09 10° N visible
25 Apr 6.3 04:11:47 10° N 04:16:38 31° ENE 04:21:21 10° SE visible
26 Apr 6.4 03:58:47 10° N 04:03:27 28° ENE 04:08:00 10° SE visible
27 Apr 6.6 03:45:45 10° NNE 03:50:15 26° ENE 03:54:38 10° SE visible
